Terminal Aerodrome Forecast
Issued by NWS Boston, MA

Current Version | Previous Version | Text Only | Print | Product List | Glossary On
Versions: 1 2 3 4 5 6 7 8 9 10 11 12 13 14 15 16 17 18 19 20
000 FTUS41 KBOX 242326 TAFBDL TAF KBDL 242326Z 2500/2606 32009KT P6SM BKN035 FM250400 32004KT P6SM SCT050 FM251900 26007KT P6SM SCT200 FM252300 22005KT P6SM BKN090 FM260400 24005KT P6SM SCT250=

USA.gov is the U.S. government's official web portal to all federal, state and local government web resources and services.